RH
74 76 77 77 78 79 78 80 82 82 83 82 83 82 81 81 82 83 81 80 78 76 77 77 74 77 59 32 27 22 40 30 24 28 25 27 25 28 26 24 31 28 34 29 32 27 27
74 78 77 77 79 78 82 81 79 80 81 83 83 83 84 82 81 81 81 80 79 76 77 76 73 74 44 45 22 23 28 24 24 26 26 24 24 24 22 27 28 32 31 31 30 30 32
76 77 76 80 83 84 84 84 85 85 83 84 84 85 86 84 82 80 78 76 75 77 74 69 71 50 29 29 21 28 28 27 28 28 30 33 35 28 30 29 30 32 41 44 35 37 40
76 77 79 82 84 85 85 86 86 86 85 85 86 86 86 85 82 80 78 74 76 78 72 68 65 43 45 24 27 28 29 29 30 28 26 28 32 29 29 31 40 42 41 34 44 49 42
77 77 82 84 84 84 84 84 86 86 86 86 87 88 87 85 83 81 80 77 78 71 68 63 43 51 44 36 29 32 32 32 33 30 34 25 36 41 40 50 42 36 36 52 40 56 53
77 80 84 85 84 84 83 84 85 85 85 87 88 89 89 86 84 84 79 70 66 61 46 30 25 30 33 32 34 34 38 39 36 38 42 41 44 40 41 37 42 42 50 53 50 51 58
77 81 84 85 84 83 82 83 84 84 85 87 88 90 89 85 86 80 61 38 31 40 30 46 40 35 34 31 38 37 41 41 41 36 49 54 42 46 52 58 57 50 62 62 53 64 60
78 82 84 84 83 82 83 83 83 83 84 87 89 90 87 84 84 63 45 42 50 46 48 37 35 36 34 41 36 35 38 42 41 47 54 37 44 49 36 43 47 62 66 60 56 60 69
79 83 84 83 83 82 83 82 80 79 82 87 90 90 87 86 79 49 45 50 51 67 41 45 38 38 36 39 41 37 40 44 54 53 54 30 43 36 41 49 50 60 64 68 67 63 78
79 84 84 83 82 82 80 79 79 79 84 88 90 89 86 76 46 46 42 51 58 67 41 35 39 42 40 43 45 44 47 51 47 49 60 56 43 42 48 50 52 50 62 63 69 73 61
83 84 83 82 80 78 78 78 78 80 87 91 91 89 83 57 41 36 43 58 68 48 46 33 43 38 44 41 43 44 50 47 52 60 48 36 48 53 54 52 59 59 67 75 74 94 93
84 82 81 78 76 77 78 78 79 82 89 92 92 88 71 61 63 70 68 78 54 37 38 42 42 40 36 44 44 46 50 48 52 57 58 56 54 62 63 57 58 62 77 72 87 93 88
82 81 77 75 76 77 77 78 80 83 89 92 91 81 65 60 52 72 84 52 36 49 30 31 41 39 41 42 42 42 47 55 58 38 52 71 62 63 60 68 75 72 69 71 66 80 69
81 76 75 75 75 76 76 78 78 81 88 94 82 72 68 68 80 83 61 28 24 23 57 47 47 46 38 58 51 48 49 44 79 56 81 47 41 72 60 77 73 76 72 75 43 58 48
77 76 75 74 74 75 76 75 77 83 89 92 78 88 76 76 71 76 39 48 22 27 50 38 35 49 47 57 59 51 57 70 65 67 50 70 51 63 59 71 79 78 88 73 88 92 99
76 74 74 73 75 76 75 73 76 82 90 84 77 74 68 75 75 51 39 41 51 50 46 49 32 53 43 41 56 58 52 59 73 82 84 70 60 70 64 70 77 80 80 80 90 64 93
74 74 73 74 75 76 74 72 74 81 91 80 60 54 58 84 62 44 46 37 66 43 48 45 45 55 55 58 62 55 47 53 70 78 81 88 74 70 75 78 80 92 89 94 86 88 85
74 73 73 74 76 76 74 72 73 80 89 72 54 24 65 61 44 83 60 63 53 48 48 49 58 55 61 64 64 60 45 64 74 74 78 88 84 81 65 93 90 92 84 88 82 76 93
74 74 73 73 75 76 76 73 74 80 86 82 76 80 66 48 36 62 72 62 52 51 51 51 52 54 69 68 60 63 66 69 64 69 81 80 82 83 62 76 88 100 96 93 94 97 94
75 74 73 72 73 77 78 78 77 79 85 81 69 43 58 88 89 72 70 64 67 58 56 52 53 57 62 67 65 65 64 67 67 63 66 75 91 70 60 58 82 92 99 98 91 98 93
74 74 73 72 71 72 79 78 75 78 82 78 93 95 92 86 88 87 85 84 74 80 75 60 60 59 66 74 72 72 72 75 70 56 83 78 89 84 79 74 85 76 82 97 98 85 85
74 72 72 73 72 72 79 79 74 78 78 95 96 96 95 97 90 83 89 95 92 88 88 83 79 85 81 89 72 78 81 83 79 80 84 85 90 93 97 79 84 85 80 86 88 81 87
73 73 73 74 74 74 78 78 76 74 76 98 98 94 92 91 93 93 95 93 75 69 81 80 84 86 89 93 89 78 83 82 79 87 79 89 94 98 87 84 89 91 87 85 86 96 88
73 73 73 74 74 74 74 77 75 69 81 98 94 96 93 96 95 93 71 73 79 80 78 83 89 83 86 83 85 84 95 96 95 93 91 95 97 99 92 96 98 72 96 93 94 100 98
72 72 72 73 73 73 73 72 71 70 73 96 99 96 94 98 90 80 80 88 69 82 83 89 93 82 82 88 92 75 60 60 88 90 94 87 94 97 98 98 73 85 94 95 95 93 99
72 72 72 71 72 72 73 73 72 71 71 94 97 98 92 90 69 86 85 87 95 98 72 75 73 84 85 97 92 97 89 80 67 72 79 90 98 99 99 99 98 87 95 97 98 96 96
71 70 71 72 72 73 73 72 72 72 74 90 97 97 89 94 92 90 87 80 90 91 93 87 92 90 85 98 98 97 96 88 98 99 98 98 98 96 90 96 85 98 97 98 97 88 97
70 71 72 72 72 72 72 73 71 72 73 83 94 97 87 96 91 93 87 84 92 91 86 81 77 80 96 97 90 90 94 96 99 92 97 93 92 98 97 100 92 91 92 86 84 94 92
71 72 72 72 71 71 71 72 72 72 73 75 85 93 90 88 78 93 90 88 81 73 88 96 83 96 96 94 94 95 97 100 99 95 82 87 84 92 85 76 82 93 90 97 90 92 93
Wind_Speed
9 10 10 11 11 11 12 12 12 12 12 11 10 9 10 10 10 10 9 8 7 7 6 5 5 6 2 1 1 4 8 7 3 2 3 0 2 2 3 3 2 2 1 2 1 2 1
9 10 11 11 12 12 12 12 12 12 11 12 10 10 10 10 10 10 9 9 8 6 5 5 5 5 3 0 0 5 7 2 4 3 2 4 2 2 5 2 3 2 2 2 2 3 2
9 10 11 12 13 13 13 13 13 13 11 11 11 10 10 11 10 9 9 9 8 6 5 5 5 2 2 2 1 4 7 2 3 1 2 1 1 3 2 3 1 2 2 2 5 6 2
9 10 12 13 13 13 13 13 12 13 13 13 12 11 11 11 11 11 9 8 7 5 5 6 4 1 2 1 2 5 6 2 4 2 3 2 2 6 4 1 5 4 5 4 1 7 3
9 10 12 13 13 13 14 14 14 14 15 15 13 13 12 12 11 10 9 8 6 4 4 2 2 1 1 2 3 2 4 2 3 2 2 2 5 4 4 4 5 7 1 1 6 4 4
10 11 12 12 13 14 15 15 15 16 16 15 14 13 12 11 10 9 9 2 2 3 0 1 0 2 1 0 2 2 3 2 2 2 2 6 6 4 4 5 4 3 2 2 5 5 5
9 11 11 12 13 14 15 16 16 16 15 15 14 13 12 11 10 8 2 3 4 3 7 1 0 1 1 5 1 4 3 2 1 6 1 4 5 3 3 2 2 4 2 3 4 2 5
10 11 12 13 14 15 15 16 17 17 17 17 15 14 12 12 9 3 2 4 2 1 1 0 1 1 1 1 2 3 4 2 1 3 1 5 2 3 5 3 3 2 0 5 4 2 0
10 12 12 13 14 15 16 16 17 17 18 17 15 14 13 12 3 4 4 3 1 1 2 1 1 1 1 2 1 3 4 1 3 3 1 5 1 3 2 2 2 1 3 1 3 7 2
11 12 12 13 14 15 16 17 17 17 17 16 14 13 13 12 3 1 2 2 2 1 6 3 2 2 2 2 1 1 1 2 4 4 3 2 1 3 2 1 4 3 2 2 2 6 3
10 11 13 14 15 16 17 17 18 18 16 15 14 12 10 7 5 3 0 2 2 2 5 1 1 1 0 1 1 2 2 1 4 4 5 3 4 2 2 1 2 2 2 3 3 4 4
10 12 13 14 15 16 17 18 19 18 17 15 13 11 4 4 4 1 2 2 2 9 7 2 1 2 2 2 2 2 2 7 4 4 4 2 0 1 2 3 3 6 4 5 4 3 3
10 12 14 15 16 17 18 19 18 18 18 16 10 7 5 1 1 2 2 3 8 6 2 2 1 4 2 3 2 3 3 3 4 3 2 1 1 2 1 3 2 4 5 5 7 5 7
11 13 14 16 17 18 19 19 20 20 18 15 5 4 4 3 2 1 3 7 2 2 2 1 1 2 1 3 0 2 1 3 2 5 3 4 7 2 3 3 7 3 7 8 7 4 4
12 14 15 16 18 18 19 20 20 18 16 11 2 3 3 4 2 2 6 5 7 4 1 4 2 1 2 1 1 3 3 4 4 6 8 5 4 1 3 1 3 3 3 3 8 1 4
13 14 16 18 19 19 20 21 20 19 16 6 3 2 2 5 1 5 7 5 2 0 1 1 2 1 2 2 1 1 2 4 1 1 1 3 2 1 1 2 3 4 2 4 4 1 6
14 15 17 18 20 20 21 22 22 20 16 1 4 3 3 4 3 6 4 6 2 1 1 1 3 2 3 2 1 3 3 2 1 3 3 4 4 2 2 7 9 1 2 3 3 4 6
16 17 18 20 21 22 23 23 23 21 15 7 3 2 3 2 5 1 3 3 1 1 0 1 1 3 3 1 3 4 4 1 1 4 4 0 5 3 5 1 3 2 5 5 6 6 3
16 18 20 21 22 24 24 25 25 21 11 3 3 1 2 4 2 2 2 0 1 1 1 1 0 1 1 1 2 1 2 2 1 0 4 4 2 3 8 4 3 3 4 3 4 3 8
18 19 21 22 24 25 26 25 26 23 10 5 3 3 5 6 1 4 4 4 3 3 3 3 3 2 2 1 0 3 1 2 1 0 4 3 1 8 10 7 6 2 4 5 5 5 4
19 20 22 23 25 27 28 28 29 27 11 4 5 1 1 3 5 4 4 4 5 6 5 6 4 6 2 3 5 3 2 6 2 3 3 4 6 6 7 7 4 8 7 10 11 11 15
20 21 22 24 25 28 29 30 32 31 7 7 3 3 3 2 2 3 6 6 4 5 5 4 4 5 1 2 3 5 5 3 7 1 3 0 5 1 5 8 11 20 11 10 18 19 17
20 21 23 23 25 28 28 30 31 33 12 5 3 3 4 5 3 4 2 3 2 3 2 6 3 3 4 1 5 10 9 8 8 4 3 3 1 2 14 3 7 12 10 16 7 2 6
20 21 21 23 25 26 27 28 29 28 17 4 3 1 5 2 4 2 3 2 4 2 3 3 5 3 2 7 8 7 6 8 6 8 5 6 2 2 11 3 8 7 2 3 3 2 3
18 19 21 22 23 25 26 27 27 26 17 5 3 3 4 3 1 0 2 2 2 4 3 2 2 1 6 5 5 6 5 3 3 3 3 3 2 4 4 4 10 1 4 3 3 5 1
19 19 20 21 22 24 24 25 25 25 18 4 4 1 4 7 3 2 2 1 2 1 5 1 2 3 4 3 3 3 2 3 5 6 3 2 1 2 3 3 6 4 2 2 2 5 5
18 18 19 20 21 22 22 23 22 22 19 5 3 4 4 5 3 4 2 3 3 1 2 3 5 6 3 2 2 2 4 2 2 3 3 4 3 5 7 5 8 2 3 2 2 4 2
17 17 18 19 20 21 21 22 22 21 20 5 0 4 3 3 3 4 4 4 2 2 4 4 5 4 4 4 2 1 2 3 2 4 5 5 3 4 1 1 8 3 2 3 5 2 5
16 17 18 19 20 20 20 20 20 18 16 6 3 3 2 4 3 1 3 2 3 5 5 2 3 2 4 4 2 1 3 2 2 4 2 3 8 5 8 8 4 4 6 4 7 6 5
Wind_Direction
17 11 11 5 2 359 359 356 353 349 345 338 332 334 333 325 316 315 306 300 292 294 303 313 308 301 285 255 334 352 356 2 67 104 46 49 92 117 126 112 79 81 129 82 98 29 325
15 11 5 2 360 358 354 354 349 345 345 337 332 331 331 331 324 313 303 295 286 297 308 291 279 285 218 266 263 355 355 29 38 59 31 23 122 135 105 82 96 133 89 85 47 14 53
16 6 1 358 355 353 351 350 347 343 342 337 332 333 332 334 321 312 305 295 294 303 297 264 241 234 90 186 59 2 28 48 0 47 94 8 102 62 110 99 141 103 109 106 26 353 359
7 5 357 355 354 352 351 348 345 343 343 341 339 333 337 331 326 315 304 303 297 288 265 237 208 236 160 197 201 45 1 33 360 18 98 130 70 101 53 134 24 53 54 18 25 355 344
359 0 356 354 352 351 349 349 348 347 346 345 340 338 334 333 327 315 310 298 278 248 227 229 253 209 215 201 50 349 51 353 313 34 43 79 67 86 35 74 16 10 235 320 321 47 325
353 356 358 353 351 350 350 349 348 348 348 344 339 337 334 329 324 320 313 211 148 137 124 217 335 23 2 72 346 7 22 9 83 100 40 47 49 69 40 70 221 254 325 279 253 339 359
349 352 356 352 351 350 351 349 348 346 344 344 342 339 330 328 324 324 28 69 25 336 50 213 148 116 356 311 34 32 21 357 130 55 122 6 73 210 195 134 109 110 125 259 265 32 337
350 350 356 355 352 350 350 348 347 346 346 347 343 339 331 325 319 347 71 86 110 183 318 14 85 59 74 68 44 4 5 172 158 177 111 25 211 146 112 88 98 86 38 278 283 32 76
352 351 356 356 353 349 349 347 345 345 345 344 343 338 331 325 286 44 77 117 316 206 115 12 48 35 359 33 86 309 11 68 84 131 61 158 93 119 106 89 114 203 197 256 235 322 59
352 355 357 356 353 351 348 345 344 343 342 342 339 338 336 330 58 207 49 310 312 265 64 285 25 21 24 81 357 317 22 112 38 167 116 91 55 133 104 211 131 264 78 90 15 39 275
355 356 358 358 355 352 347 345 344 342 340 339 338 338 345 39 145 64 276 287 273 56 19 293 11 262 19 126 106 22 11 357 154 139 103 241 155 155 175 228 176 199 64 77 85 85 50
6 0 2 359 355 353 349 346 345 342 341 341 337 337 332 22 54 328 304 315 34 45 263 352 20 329 349 19 21 336 55 47 134 99 52 90 337 77 137 81 73 143 82 48 54 86 22
21 8 5 2 358 354 352 348 346 345 343 340 333 350 62 74 149 321 7 40 37 127 337 340 342 30 348 327 3 36 27 5 165 86 229 101 183 66 47 101 38 80 63 335 350 7 224
29 17 10 5 2 357 354 349 347 345 342 340 351 55 24 65 344 52 60 51 173 226 235 349 320 316 263 18 247 350 26 291 221 81 96 160 309 153 358 150 181 172 146 155 223 225 272
33 23 13 9 6 1 356 351 347 343 341 342 1 7 40 345 355 79 75 69 216 193 346 348 303 15 317 28 257 12 218 202 209 181 165 145 256 131 53 96 80 187 187 142 103 69 42
37 26 19 13 9 4 359 353 348 344 342 348 86 58 343 320 352 67 76 219 208 227 271 150 237 64 265 279 325 11 211 234 130 10 177 192 2 344 133 114 40 139 145 64 356 281 262
40 31 23 17 11 6 2 357 351 347 344 158 56 58 260 339 58 48 159 215 202 209 256 221 203 251 232 279 236 253 266 249 94 139 94 132 104 249 153 197 180 73 340 39 124 152 201
41 33 26 21 14 8 5 2 357 350 346 50 99 25 311 53 51 29 136 200 91 200 88 257 172 210 217 223 247 242 246 328 125 157 171 58 148 217 227 297 156 116 194 150 140 250 218
43 35 29 24 18 12 9 5 1 355 3 112 86 262 324 86 112 334 274 12 31 41 23 6 65 192 47 270 312 239 348 358 72 30 186 206 296 358 324 357 25 204 218 143 124 104 198
45 38 31 26 22 16 10 8 3 358 352 81 72 19 342 49 74 100 16 9 12 33 41 16 13 15 355 327 240 289 313 26 234 175 133 147 180 183 230 211 134 198 202 194 147 198 215
47 40 34 28 25 21 14 10 8 3 359 86 27 26 208 351 12 72 52 9 358 12 16 30 52 39 80 4 331 281 1 350 255 221 140 159 225 224 254 261 206 231 199 197 206 219 233
48 42 37 31 28 25 21 15 10 8 15 77 82 72 13 42 348 50 3 3 45 330 27 349 64 331 288 234 327 301 8 212 230 25 207 223 270 62 272 249 252 265 254 209 228 242 249
50 44 39 33 31 29 25 22 19 13 22 79 348 359 110 327 31 69 14 350 34 323 68 69 7 330 314 354 288 263 234 249 261 305 243 187 245 311 283 236 313 282 226 230 228 223 230
50 44 40 36 34 31 29 27 26 27 37 89 23 43 71 352 67 94 360 354 16 48 269 356 34 38 342 300 273 259 249 252 248 266 209 248 200 219 289 21 261 258 195 171 184 287 237
52 46 42 38 34 31 30 28 27 28 38 68 8 59 92 99 152 80 23 350 341 330 8 299 15 346 312 336 0 345 339 17 66 31 28 237 209 260 255 212 287 233 2 4 112 296 279
49 43 38 36 33 31 28 25 24 23 24 74 47 5 90 116 247 168 169 173 192 318 339 253 353 305 28 79 54 68 286 312 323 345 1 40 258 248 356 270 258 243 322 319 260 282 161
45 42 38 35 32 29 26 24 21 19 25 64 30 14 79 104 249 161 183 186 137 106 201 305 333 358 10 55 84 138 276 241 277 284 299 343 349 248 263 274 288 222 254 199 341 256 180
42 38 36 33 30 25 21 20 18 15 18 53 277 12 91 120 259 201 188 150 106 115 149 255 36 334 37 82 167 205 225 258 290 258 210 173 173 228 111 315 284 192 276 171 208 78 149
39 33 31 27 23 20 17 14 11 9 12 42 41 356 1 101 217 263 243 236 197 182 138 14 192 173 195 107 176 138 225 19 157 266 10 301 187 198 181 222 211 196 205 213 183 164 185